Location: Fort Wayne
(41.1310°N, 85.1290°W)
Time: 17:32:48
(UTC-04:00)

Iridium 37 - Visible Passes

Search period start: 24 April 2014 00:00
Search period end: 04 May 2014 00:00
Orbit: 776 x 779 km, 86.4° (Epoch: 24 April)

Date Brightness Start Highest point End Pass type
(mag) Time Alt. Az. Time Alt. Az. Time Alt. Az.
24 Apr 5.6 04:20:55 10° N 04:26:09 72° E 04:28:22 35° SSE visible
24 Apr 7.4 06:03:55 10° NW 06:06:09 13° WNW 06:08:22 10° WSW visible
25 Apr 6.7 03:47:39 10° NNE 03:52:31 39° E 03:54:36 27° SE visible
25 Apr 6.7 05:28:54 10° NNW 05:32:58 24° W 05:35:03 18° WSW visible
26 Apr 7.6 03:14:47 10° NNE 03:18:46 22° ENE 03:20:52 17° ESE visible
26 Apr 5.9 04:54:46 10° NNW 04:59:40 42° W 05:01:19 33° SW visible
27 Apr 8.1 02:42:59 10° NE 02:44:52 12° ENE 02:46:44 10° E visible
27 Apr 5.4 04:21:01 10° N 04:26:14 79° W 04:27:37 50° SSW visible
28 Apr 6.0 03:47:33 10° N 03:52:41 56° E 03:53:55 45° SE visible
28 Apr 7.1 05:29:42 10° NW 05:32:52 17° WNW 05:34:23 15° W visible
29 Apr 7.0 03:14:24 10° NNE 03:19:00 31° E 03:20:15 28° ESE visible
29 Apr 6.4 04:55:10 10° NNW 04:59:38 30° W 05:00:43 27° WSW visible
30 Apr 7.7 02:41:48 10° NE 02:45:11 17° ENE 02:46:36 16° E visible
30 Apr 5.6 04:21:12 10° NNW 04:26:16 54° W 04:27:04 49° WSW visible
01 May 5.5 03:47:33 10° N 03:52:47 82° E 03:53:26 69° SSE visible
01 May 7.5 05:31:16 10° WNW 05:32:42 11° WNW 05:33:53 10° W visible
02 May 6.3 03:14:12 10° N 03:19:11 44° E 03:19:48 42° ESE visible
02 May 6.9 04:55:44 10° NNW 04:59:33 21° W 05:00:16 20° W visible
03 May 7.2 02:41:14 10° NNE 02:45:27 25° ENE 02:46:12 24° E visible
03 May 6.1 04:21:29 10° NNW 04:26:15 37° W 04:26:39 37° W visible
